Location: Derby
(52.9213°N, 1.4761°W)
Time: 03:00:00
(UTC+01:00)

Vanguard 2 Rocket - Pass Details

Date: 26 May 2025
Orbit: 554 x 3293 km, 32.9° (Epoch: 12 June)

Event Time Altitude Azimuth Distance (km) Brightness Sun altitude
Rises 01:56:39 0° 260° (W) 7,105 11.2 -15.0°
Reaches altitude 10° 02:02:42 10° 251° (WSW) 5,818 10.7 -14.8°
Maximum altitude 02:15:29 28° 203° (SSW) 3,628 9.3 -14.3°
Drops below altitude 10° 02:24:25 10° 150° (SSE) 3,980 9.8 -13.8°
Sets 02:27:39 0° 138° (SE) 4,597 10.2 -13.7°
